TimeCDT,TemperatureF,Dew PointF,Humidity,Sea Level PressureIn,VisibilityMPH,Wind Direction,Wind SpeedMPH,Gust SpeedMPH,PrecipitationIn,Events,Conditions,WindDirDegrees,DateUTC
12:53 AM,57.0,51.1,81,30.08,10.0,North,17.3,24.2,N/A,,Overcast,10,2012-10-07 05:53:00
1:53 AM,55.4,50.0,82,30.14,10.0,North,18.4,23.0,N/A,,Overcast,10,2012-10-07 06:53:00
2:53 AM,54.0,48.9,83,30.09,10.0,North,17.3,26.5,N/A,,Overcast,10,2012-10-07 07:53:00
3:53 AM,54.0,46.9,77,30.10,10.0,NNE,19.6,28.8,N/A,,Overcast,20,2012-10-07 08:53:00
4:53 AM,53.1,46.0,77,30.11,10.0,NNE,17.3,27.6,N/A,,Overcast,30,2012-10-07 09:53:00
5:53 AM,53.1,46.0,77,30.12,10.0,NNE,15.0,25.3,N/A,,Overcast,30,2012-10-07 10:53:00
6:53 AM,53.1,46.0,77,30.14,10.0,NNE,15.0,24.2,N/A,,Overcast,20,2012-10-07 11:53:00
7:53 AM,52.0,46.0,80,30.17,10.0,North,15.0,20.7,N/A,,Overcast,10,2012-10-07 12:53:00
8:53 AM,51.1,46.0,83,30.18,10.0,NNE,16.1,23.0,N/A,,Overcast,20,2012-10-07 13:53:00
9:53 AM,52.0,45.0,77,30.19,10.0,NNE,12.7,24.2,N/A,,Overcast,20,2012-10-07 14:53:00
10:53 AM,53.1,45.0,74,30.19,10.0,North,12.7,20.7,N/A,,Overcast,10,2012-10-07 15:53:00
11:53 AM,55.0,45.0,69,30.18,10.0,NNE,13.8,20.7,N/A,,Overcast,30,2012-10-07 16:53:00
12:53 PM,55.9,45.0,67,30.17,10.0,NNE,11.5,-,N/A,,Overcast,30,2012-10-07 17:53:00
1:53 PM,57.0,46.0,67,30.15,10.0,North,9.2,17.3,N/A,,Overcast,360,2012-10-07 18:53:00
2:53 PM,57.0,46.0,67,30.12,10.0,NNE,12.7,-,N/A,,Overcast,20,2012-10-07 19:53:00
3:53 PM,57.9,46.9,67,30.11,10.0,North,10.4,-,N/A,,Overcast,10,2012-10-07 20:53:00
4:53 PM,57.9,46.9,67,30.11,10.0,NNW,6.9,-,N/A,,Overcast,340,2012-10-07 21:53:00
5:53 PM,57.9,46.9,67,30.11,10.0,NE,8.1,-,N/A,,Overcast,50,2012-10-07 22:53:00
6:53 PM,57.0,46.0,67,30.12,10.0,NNE,8.1,-,N/A,,Overcast,20,2012-10-07 23:53:00
7:53 PM,55.9,45.0,67,30.14,10.0,North,9.2,-,N/A,,Overcast,10,2012-10-08 00:53:00
8:53 PM,55.0,44.1,67,30.16,10.0,North,11.5,-,N/A,,Overcast,360,2012-10-08 01:53:00
9:53 PM,55.0,44.1,67,30.17,10.0,NNE,9.2,-,N/A,,Overcast,20,2012-10-08 02:53:00
10:53 PM,55.0,43.0,64,30.18,10.0,NNE,11.5,-,N/A,,Overcast,20,2012-10-08 03:53:00
11:53 PM,53.1,43.0,69,30.18,10.0,North,10.4,-,N/A,,Overcast,10,2012-10-08 04:53:00